Voltar ao catálogo

STARLINK-35694

AtivoComunicaçõesVLEO
NORAD 66389·PAYLOAD·🇺🇸 United States

Lançado Nov 8, 2025 de Cape Canaveral Space Force Station

Loading…

Próximas Passagens (próximas 24 horas)

TLE

AtualizadoSource: CelesTrak SupGP

Época: Sep 15, 2026, 03:16 UTC

1 66389C 25257K   26258.13659722 -.00019599  00000+0 -57918-3 0  2586
2 66389  53.1599  54.8868 0001179  87.3815 117.3550 15.34394382    10

Acompanhe STARLINK-35694 em tempo real com AllMySat

Download on the App Store